[[{"header":{"parameterUnit":"m.s-1","parameterCategory":1,"la1":30.2991,"la2":30.254,"lo1":-89.0895,"lo2":-89.0444,"dy":0.0017,"dx":0.0017,"nx":28,"ny":28,"refTime":"2025-02-24T09:00:00:Z","depth":0,"parameterNumber":2,"parameterNumberName":"U-component_of_WINDS"},"data":[0,0,0,0,0,0,0,0,0,0,0,0,0,0,0,0,0,0,0,0,0,0,0,0,0,0,0,0,0,0,0,0,0,0,0,0,0,0,0,0,0,0,0,0,0,0,0,0,0,0,0,0,0,0,0,0,0,0,-3.0969,-3.0969,0,-3.106,-3.1061,-3.1062,-3.0997,-3.0994,-3.0991,-3.0988,-3.1085,-3.109,-3.1095,0,0,0,0,0,0,0,0,0,0,0,0,0,-3.0738,-3.0743,-3.0968,-3.097,-3.0971,-3.106,-3.1061,-3.1063,-3.0997,-3.0994,-3.099,-3.0987,-3.1083,-3.1089,-3.1096,0,0,0,0,0,0,0,0,0,0,0,0,0,-3.0835,-3.0744,-3.0968,-3.0949,-3.0948,-3.106,-3.1061,-3.1063,-3.0998,-3.0994,-3.0989,-3.0985,-3.1081,-3.1089,-3.1097,-3.1233,0,0,-3.1121,-3.1124,0,0,0,0,0,0,0,0,-3.083,-3.0844,-3.0951,-3.095,-3.095,-3.1013,-3.1015,-3.112,-3.0999,-3.0979,-3.0988,-3.0983,-3.1065,-3.1074,-3.11,-3.1238,-3.1242,-3.1122,-3.1126,-3.113,-3.1132,0,0,0,0,0,0,0,-3.0823,-3.0839,-3.1005,-3.0952,-3.0952,-3.0936,-3.0945,-3.1035,-3.1045,-3.0981,-3.0976,-3.0988,-3.1063,-3.1093,-3.1102,-3.1243,-3.1121,-3.1128,-3.1133,-3.1136,-3.1497,-3.1502,0,0,0,0,0,0,-3.0818,-3.0834,-3.1002,-3.1008,-3.0878,-3.0944,-3.0954,-3.0997,-3.1044,-3.1047,-3.0991,-3.0984,-3.1082,-3.1093,-3.1105,-3.1269,-3.113,-3.1137,-3.1142,-3.1493,-3.1498,-3.1504,0,0,0,0,0,0,-3.0813,-3.0833,-3.0998,-3.092,-3.0939,-3.0952,-3.1001,-3.1001,-3.103,-3.1052,-3.1054,-3.102,-3.1079,-3.1094,-3.1202,-3.1272,-3.1141,-3.1148,-3.1487,-3.1494,-3.1501,-3.1597,0,0,0,0,0,0,-3.0807,-3.0832,-3.0884,-3.0921,-3.0944,-3.1093,-3.1006,-3.1006,-3.1044,-3.1036,-3.1079,-3.1082,-3.1076,-3.119,-3.121,-3.128,-3.1154,-3.1481,-3.149,-3.1499,-3.1588,-3.1607,-3.1623,0,0,0,0,0,-3.0799,-3.0908,-3.0887,-3.0908,-3.1009,-3.1097,-3.111,-3.11,-3.105,-3.1102,-3.1116,-3.1081,-3.126,-3.1202,-3.1223,-3.1297,-3.1476,-3.1488,-3.1498,-3.158,-3.1603,-3.1623,0,0,0,0,0,0,-3.0879,-3.0912,-3.089,-3.1014,-3.1053,-3.1086,-3.1152,-3.1125,-3.118,-3.117,-3.1156,-3.1167,-3.128,-3.1298,-3.1233,-3.1432,-3.136,-3.1376,-3.1416,-3.1438,-3.1455,-3.1449,-3.1161,0,0,0,0,0,-3.0911,-3.098,-3.1005,-3.1112,-3.1133,-3.1139,-3.1177,-3.1166,-3.1207,-3.1223,-3.1245,-3.1286,-3.1352,-3.1395,-3.1457,-3.159,-3.1599,-3.1651,-3.1668,-3.1683,-3.1697,-3.177,-3.1793,-3.1539,-3.1539,-3.1539,0,0,-3.0979,-3.1005,-3.1049,-3.1129,-3.1158,-3.123,-3.1154,-3.1233,-3.1286,-3.1235,-3.1338,-3.1356,-3.1401,-3.1522,-3.1576,-3.1541,-3.1769,-3.1697,-3.1708,-3.1715,-3.1783,-3.1807,-3.1829,-3.1547,-3.1545,-3.1544,0,0,-3.1139,-3.1165,-3.1257,-3.1288,-3.1332,-3.1336,-3.1358,-3.1395,-3.1404,-3.1507,-3.147,-3.1533,-3.1646,-3.168,-3.1712,-3.1884,-3.1854,-3.1904,-3.1997,-3.2067,-3.2087,-3.2105,-3.2168,-3.219,-3.1918,-3.1918,-3.1918,0,-3.1217,-3.1323,-3.1309,-3.1391,-3.1427,-3.1383,-3.1477,-3.1507,-3.157,-3.1597,-3.1556,-3.1697,-3.1724,-3.1853,-3.1894,-3.1921,-3.1947,-3.19,-3.2085,-3.2103,-3.212,-3.2179,-3.2202,-3.1924,-3.1923,-3.1923,-3.1922,0,-3.1418,-3.1492,-3.1562,-3.1623,-3.1667,-3.1754,-3.1754,-3.18,-3.1784,-3.1792,-3.1897,-3.1928,-3.1995,-3.2024,-3.2011,-3.2151,-3.2128,-3.2087,-3.2015,-3.215,-3.2206,-3.2228,-3.1932,-3.193,-3.1928,-3.1927,0,0,-3.1634,-3.1684,-3.171,-3.1738,-3.1783,-3.184,-3.1926,-3.199,-3.2031,-3.2075,-3.2147,-3.2243,-3.2205,-3.2242,-3.2231,-3.2293,-3.2428,-3.2243,-3.2244,-3.2278,-3.2586,-3.2619,-3.2645,-3.2407,-3.2411,-3.2415,-3.2583,0,-3.1797,-3.1946,-3.1935,-3.2075,-3.2144,-3.2102,-3.2177,-3.2213,-3.2222,-3.2282,-3.2292,-3.2361,-3.2304,-3.2326,-3.2385,-3.2399,-3.249,-3.2386,-3.2476,-3.2479,-3.2468,-3.2674,-3.2709,-3.2866,-3.2604,-3.2608,-3.2611,0,-3.2008,-3.2059,-3.2207,-3.2241,-3.227,-3.2337,-3.2396,-3.2453,-3.2493,-3.2495,-3.2535,-3.2514,-3.2601,-3.2525,-3.2645,-3.2575,-3.2611,-3.2623,-3.2629,-3.2638,-3.2555,-3.2691,-3.2916,-3.294,-3.2645,-3.2642,-3.2639,0,-3.2153,-3.2258,-3.236,-3.2384,-3.2427,-3.2475,-3.2495,-3.2531,-3.2571,-3.2621,-3.2647,-3.2708,-3.2742,-3.2789,-3.2785,-3.273,-3.2907,-3.2831,-3.2913,-3.2913,-3.2954,-3.2952,-3.319,-3.2974,-3.2973,-3.2973,-3.2972,0,-3.2337,-3.243,-3.2425,-3.2488,-3.2591,-3.2576,-3.2678,-3.2693,-3.2724,-3.279,-3.2757,-3.2819,-3.2809,-3.2871,-3.2868,-3.2969,-3.2984,-3.2989,-3.2988,-3.2993,-3.2993,-3.3018,-3.3008,-3.2979,-3.2978,-3.2977,-3.2976,0,-3.2517,-3.2518,-3.2626,-3.2657,-3.2667,-3.2741,-3.2768,-3.2828,-3.2833,-3.2917,-3.2935,-3.2944,-3.3016,-3.3016,-3.3098,-3.3096,-3.322,-3.3204,-3.3206,-3.3204,-3.3286,-3.3279,-3.355,-3.3585,-3.3345,-3.3347,-3.3349,0,-3.2636,-3.2706,-3.2744,-3.2786,-3.2809,-3.2875,-3.2915,-3.2903,-3.2947,-3.2997,-3.3051,-3.3119,-3.3174,-3.3291,-3.3305,-3.3368,-3.3355,-3.3445,-3.3364,-3.3368,-3.3359,-3.3355,-3.3363,-3.3462,-3.3465,-3.3467,-3.3469,0,-3.2848,-3.2845,-3.2903,-3.2962,-3.3011,-3.3056,-3.3099,-3.3134,-3.3127,-3.3177,-3.325,-3.3292,-3.3375,-3.3444,-3.3504,-3.3525,-3.3497,-3.3494,-3.3516,-3.3524,-3.3523,-3.3526,-3.3252,-3.3488,-3.3486,-3.3485,-3.3484,-3.3483,-3.3003,-3.3063,-3.3099,-3.3166,-3.3196,-3.3236,-3.3294,-3.3306,-3.3366,-3.3432,-3.3421,-3.3503,-3.354,-3.3618,-3.3645,-3.3708,-3.3677,-3.3709,-3.3718,-3.3726,-3.3736,-3.3511,-3.3719,-3.3719,-3.3718,-3.3718,-3.3717,0,-3.3214,-3.3235,-3.3296,-3.3356,-3.3408,-3.3375,-3.3419,-3.3466,-3.3538,-3.3575,-3.3628,-3.3712,-3.3778,-3.3797,-3.3861,-3.3909,-3.3898,-3.3926,-3.3924,-3.3929,-3.376,-3.3735,-3.3934,-3.3934,-3.3934,-3.3934,-3.3934,-3.3934,-3.3331,-3.3432,-3.3432,-3.3548,-3.3567,-3.3647,-3.3675,-3.3712,-3.3742,-3.3836,-3.3891,-3.3902,-3.3932,-3.3998,-3.4058,-3.4061,-3.4087,-3.4122,-3.4121,-3.3963,-3.3941,-3.3921,-3.3897,-3.4127,-3.4127,-3.4285,-3.4286,-3.4288]},{"header":{"parameterUnit":"m.s-1","parameterCategory":1,"la1":30.2991,"la2":30.254,"lo1":-89.0895,"lo2":-89.0444,"dy":0.0017,"dx":0.0017,"nx":28,"ny":28,"refTime":"2025-02-24T09:00:00:Z","depth":0,"parameterNumber":3,"parameterNumberName":"V-component_of_WINDS"},"data":[0,0,0,0,0,0,0,0,0,0,0,0,0,0,0,0,0,0,0,0,0,0,0,0,0,0,0,0,0,0,0,0,0,0,0,0,0,0,0,0,0,0,0,0,0,0,0,0,0,0,0,0,0,0,0,0,0,0,-5.127,-5.127,0,-5.1237,-5.1237,-5.1236,-5.1132,-5.1129,-5.1127,-5.1125,-5.1094,-5.1095,-5.1096,0,0,0,0,0,0,0,0,0,0,0,0,0,-5.1244,-5.1245,-5.127,-5.127,-5.1269,-5.1237,-5.1237,-5.1236,-5.1132,-5.1129,-5.1126,-5.1124,-5.1093,-5.1095,-5.1096,0,0,0,0,0,0,0,0,0,0,0,0,0,-5.1238,-5.1246,-5.127,-5.1213,-5.1208,-5.1237,-5.1237,-5.1236,-5.1133,-5.1129,-5.1126,-5.1122,-5.1093,-5.1095,-5.1097,-5.1179,0,0,-5.1103,-5.1104,0,0,0,0,0,0,0,0,-5.1239,-5.1239,-5.1222,-5.1217,-5.1211,-5.1185,-5.1216,-5.1217,-5.1134,-5.1161,-5.1125,-5.1121,-5.1127,-5.1126,-5.1127,-5.1177,-5.1176,-5.1103,-5.1104,-5.1105,-5.1106,0,0,0,0,0,0,0,-5.1239,-5.124,-5.1257,-5.1222,-5.1215,-5.119,-5.1185,-5.1216,-5.1164,-5.1159,-5.1151,-5.1148,-5.1123,-5.1126,-5.1126,-5.1176,-5.1103,-5.1105,-5.1106,-5.1107,-5.129,-5.1294,0,0,0,0,0,0,-5.1247,-5.1241,-5.1258,-5.1256,-5.1216,-5.1193,-5.1188,-5.1197,-5.1164,-5.1155,-5.1151,-5.1144,-5.1124,-5.1124,-5.1125,-5.1218,-5.1105,-5.1107,-5.1108,-5.1287,-5.1291,-5.1295,0,0,0,0,0,0,-5.1247,-5.125,-5.1259,-5.1246,-5.1246,-5.1197,-5.1208,-5.1198,-5.12,-5.1158,-5.1149,-5.1163,-5.1121,-5.1122,-5.1166,-5.1215,-5.1108,-5.111,-5.1282,-5.1288,-5.1293,-5.1406,0,0,0,0,0,0,-5.1247,-5.125,-5.1281,-5.1248,-5.1247,-5.1301,-5.1211,-5.12,-5.1204,-5.1193,-5.1167,-5.1159,-5.1119,-5.1163,-5.1168,-5.1216,-5.1111,-5.1278,-5.1285,-5.1291,-5.1397,-5.1414,-5.1429,0,0,0,0,0,-5.1246,-5.1315,-5.1283,-5.1286,-5.1284,-5.1304,-5.1303,-5.1255,-5.1208,-5.1239,-5.1211,-5.116,-5.1209,-5.1169,-5.1173,-5.1222,-5.1274,-5.1283,-5.1291,-5.139,-5.1411,-5.1428,0,0,0,0,0,0,-5.1356,-5.1309,-5.1274,-5.1333,-5.1323,-5.1286,-5.1323,-5.1279,-5.1282,-5.1273,-5.1213,-5.1208,-5.126,-5.1246,-5.1201,-5.13,-5.1233,-5.1243,-5.1307,-5.1327,-5.1342,-5.1344,-5.1113,0,0,0,0,0,-5.1387,-5.1407,-5.1365,-5.1422,-5.1418,-5.1372,-5.1379,-5.1342,-5.133,-5.1326,-5.1301,-5.1292,-5.1305,-5.1315,-5.1325,-5.1395,-5.1387,-5.1431,-5.1447,-5.146,-5.1469,-5.1504,-5.1522,-5.1322,-5.1322,-5.1322,0,0,-5.1451,-5.1428,-5.1444,-5.1443,-5.1431,-5.1453,-5.1369,-5.1396,-5.1412,-5.133,-5.1369,-5.1352,-5.1337,-5.1394,-5.1418,-5.1384,-5.1522,-5.1471,-5.1481,-5.1483,-5.1514,-5.1533,-5.155,-5.1328,-5.1327,-5.1326,0,0,-5.1579,-5.1564,-5.1609,-5.1598,-5.1581,-5.1549,-5.156,-5.153,-5.1515,-5.1553,-5.1492,-5.151,-5.1535,-5.1526,-5.1526,-5.165,-5.1603,-5.1655,-5.1738,-5.1773,-5.1788,-5.1802,-5.1846,-5.1862,-5.1664,-5.1665,-5.1665,0,-5.1662,-5.1692,-5.1638,-5.1668,-5.1669,-5.1595,-5.164,-5.1633,-5.162,-5.1623,-5.1584,-5.1612,-5.1598,-5.1651,-5.1682,-5.1684,-5.1694,-5.1658,-5.179,-5.1803,-5.1815,-5.1856,-5.1873,-5.1671,-5.167,-5.167,-5.1669,0,-5.1793,-5.1815,-5.1854,-5.1842,-5.1847,-5.1885,-5.1837,-5.185,-5.1813,-5.1786,-5.1826,-5.1805,-5.1809,-5.182,-5.1784,-5.1868,-5.1847,-5.1801,-5.1732,-5.1842,-5.1879,-5.1895,-5.168,-5.1678,-5.1676,-5.1674,0,0,-5.1989,-5.1947,-5.1962,-5.1955,-5.193,-5.1946,-5.1981,-5.1984,-5.1995,-5.1989,-5.2016,-5.2038,-5.1994,-5.1994,-5.1957,-5.1988,-5.2087,-5.1937,-5.1935,-5.1965,-5.2177,-5.2212,-5.2231,-5.2055,-5.2058,-5.206,-5.2178,0,-5.211,-5.2165,-5.2118,-5.2183,-5.2202,-5.2131,-5.2161,-5.215,-5.2125,-5.2139,-5.2112,-5.2128,-5.207,-5.2069,-5.2096,-5.2069,-5.2129,-5.206,-5.208,-5.2082,-5.2085,-5.2251,-5.2288,-5.24,-5.2193,-5.2195,-5.2197,0,-5.2258,-5.2257,-5.2324,-5.2293,-5.23,-5.2327,-5.2326,-5.2339,-5.2325,-5.2305,-5.2304,-5.2258,-5.2291,-5.2224,-5.2268,-5.2222,-5.2228,-5.2216,-5.2219,-5.2219,-5.2146,-5.2254,-5.2434,-5.2451,-5.222,-5.2218,-5.2216,0,-5.2393,-5.2409,-5.245,-5.2447,-5.2413,-5.2434,-5.2421,-5.2403,-5.2407,-5.2407,-5.2409,-5.2413,-5.2414,-5.2418,-5.2375,-5.2331,-5.2424,-5.2355,-5.2409,-5.241,-5.2431,-5.243,-5.2614,-5.2436,-5.2436,-5.2436,-5.2435,0,-5.2533,-5.2576,-5.251,-5.2536,-5.2582,-5.2527,-5.2575,-5.2555,-5.2539,-5.256,-5.25,-5.252,-5.2462,-5.2478,-5.2444,-5.2485,-5.2487,-5.2471,-5.2462,-5.2476,-5.2478,-5.2479,-5.247,-5.244,-5.2439,-5.2438,-5.2438,0,-5.2691,-5.2649,-5.2689,-5.2654,-5.2646,-5.2681,-5.2651,-5.2673,-5.2645,-5.2671,-5.2675,-5.263,-5.2645,-5.2602,-5.2611,-5.2588,-5.2647,-5.2625,-5.2652,-5.2645,-5.2701,-5.2696,-5.2891,-5.2913,-5.2723,-5.2724,-5.2726,0,-5.2783,-5.2814,-5.2781,-5.279,-5.278,-5.2795,-5.2799,-5.2746,-5.2753,-5.2739,-5.2763,-5.2772,-5.2776,-5.2803,-5.2772,-5.2778,-5.2755,-5.2823,-5.2756,-5.2769,-5.2755,-5.2753,-5.2756,-5.2837,-5.2839,-5.2841,-5.2843,0,-5.2949,-5.2926,-5.2933,-5.2934,-5.294,-5.2938,-5.2932,-5.2943,-5.2886,-5.2897,-5.291,-5.2914,-5.2921,-5.2931,-5.293,-5.2917,-5.2871,-5.2864,-5.2877,-5.2892,-5.2905,-5.2898,-5.2689,-5.286,-5.2858,-5.2857,-5.2856,-5.2855,-5.3076,-5.31,-5.308,-5.309,-5.308,-5.3075,-5.3094,-5.3067,-5.3077,-5.3078,-5.3047,-5.3067,-5.3051,-5.3045,-5.3037,-5.3052,-5.302,-5.3039,-5.3044,-5.3049,-5.3058,-5.2904,-5.3052,-5.3051,-5.3051,-5.305,-5.305,0,-5.3238,-5.3221,-5.3231,-5.3224,-5.3232,-5.3186,-5.3177,-5.3187,-5.3205,-5.3194,-5.3199,-5.3214,-5.3223,-5.3193,-5.3198,-5.3216,-5.3195,-5.3219,-5.3217,-5.3214,-5.3086,-5.3074,-5.3236,-5.3236,-5.3236,-5.3236,-5.3236,-5.3236,-5.3323,-5.3361,-5.3336,-5.3368,-5.3352,-5.3369,-5.3368,-5.3364,-5.3354,-5.3373,-5.338,-5.336,-5.3341,-5.3344,-5.3351,-5.3342,-5.3346,-5.3377,-5.3361,-5.3242,-5.3224,-5.3206,-5.3195,-5.3379,-5.3379,-5.3488,-5.3489,-5.349]}]]